| time (UTC) | temp F | wind direction | speed MPH | gust MPH | rain 1hr in | rain 24hr in | rain mn in | humidity % | barometer mb |
| 20260503224518 | 73 | 0.0 | 2.0 | 0.00 | 0.00 | 0.00 | 17 | 1008.2 | |
| 20260503223539 | 73 | 315 | 1.0 | 4.0 | 0.00 | 0.00 | 0.00 | 16 | 1008.3 |
| 20260503222518 | 73 | 315 | 1.0 | 4.0 | 0.00 | 0.00 | 0.00 | 17 | 1008.7 |
| 20260503221518 | 73 | 315 | 1.0 | 4.0 | 0.00 | 0.00 | 0.00 | 16 | 1008.9 |
| 20260503220518 | 73 | 315 | 1.0 | 5.0 | 0.00 | 0.00 | 0.00 | 17 | 1009.0 |
| 20260503215559 | 73 | 338 | 1.0 | 4.0 | 0.00 | 0.00 | 0.00 | 17 | 1009.4 |
| 20260503214518 | 73 | 315 | 2.0 | 5.0 | 0.00 | 0.00 | 0.00 | 16 | 1009.4 |
| 20260503213518 | 74 | 315 | 1.0 | 5.0 | 0.00 | 0.00 | 0.00 | 16 | 1009.8 |
| 20260503212518 | 74 | 338 | 1.0 | 5.0 | 0.00 | 0.00 | 0.00 | 15 | 1010.4 |
| 20260503211518 | 74 | 0.0 | 2.0 | 0.00 | 0.00 | 0.00 | 15 | 1010.5 | |
| 20260503210518 | 74 | 0 | 1.0 | 2.0 | 0.00 | 0.00 | 0.00 | 15 | 1010.5 |
| 20260503205518 | 75 | 315 | 1.0 | 6.0 | 0.00 | 0.00 | 0.00 | 13 | 1011.0 |
| 20260503204518 | 75 | 315 | 1.0 | 4.0 | 0.00 | 0.00 | 0.00 | 13 | 1011.2 |
| 20260503203518 | 75 | 0.0 | 3.0 | 0.00 | 0.00 | 0.00 | 14 | 1011.5 | |
| 20260503202518 | 74 | 338 | 1.0 | 3.0 | 0.00 | 0.00 | 0.00 | 15 | 1011.8 |
| 20260503201519 | 75 | 293 | 1.0 | 2.0 | 0.00 | 0.00 | 0.00 | 15 | 1012.1 |
| 20260503200519 | 75 | 270 | 1.0 | 4.0 | 0.00 | 0.00 | 0.00 | 15 | 1012.3 |
| 20260503195601 | 74 | 158 | 1.0 | 4.0 | 0.00 | 0.00 | 0.00 | 16 | 1012.8 |
| 20260503194520 | 73 | 0.0 | 2.0 | 0.00 | 0.00 | 0.00 | 19 | 1012.6 | |
| 20260503193520 | 73 | 135 | 1.0 | 2.0 | 0.00 | 0.00 | 0.00 | 18 | 1012.7 |
| 20260503192520 | 73 | 0.0 | 3.0 | 0.00 | 0.00 | 0.00 | 20 | 1013.2 | |
| 20260503191520 | 73 | 0.0 | 1.0 | 0.00 | 0.00 | 0.00 | 18 | 1013.3 | |
| 20260503190520 | 72 | 0.0 | 2.0 | 0.00 | 0.00 | 0.00 | 18 | 1013.6 | |
| 20260503185540 | 72 | 0.0 | 1.0 | 0.00 | 0.00 | 0.00 | 19 | 1013.3 | |
| 20260503184520 | 71 | 68 | 1.0 | 3.0 | 0.00 | 0.00 | 0.00 | 19 | 1012.9 |
| 20260503183520 | 72 | 45 | 1.0 | 3.0 | 0.00 | 0.00 | 0.00 | 21 | 1013.5 |
| 20260503182520 | 73 | 135 | 4.0 | 8.0 | 0.00 | 0.00 | 0.00 | 18 | 1013.4 |
| 20260503181520 | 74 | 315 | 1.0 | 3.0 | 0.00 | 0.00 | 0.00 | 18 | 1014.0 |
| 20260503180540 | 73 | 158 | 2.0 | 5.0 | 0.00 | 0.00 | 0.00 | 18 | 1014.1 |
| 20260503175540 | 74 | 338 | 1.0 | 4.0 | 0.00 | 0.00 | 0.00 | 15 | 1013.9 |
| 20260503174520 | 75 | 315 | 4.0 | 9.0 | 0.00 | 0.00 | 0.00 | 13 | 1014.4 |
| 20260503173520 | 76 | 315 | 2.0 | 6.0 | 0.00 | 0.00 | 0.00 | 14 | 1014.6 |
| 20260503172520 | 76 | 315 | 2.0 | 6.0 | 0.00 | 0.00 | 0.00 | 13 | 1015.0 |
| 20260503171520 | 74 | 158 | 1.0 | 3.0 | 0.00 | 0.00 | 0.00 | 17 | 1015.0 |
| 20260503170520 | 74 | 113 | 1.0 | 2.0 | 0.00 | 0.00 | 0.00 | 19 | 1015.2 |
| 20260503150520 | 61 | 68 | 1.0 | 3.0 | 0.00 | 0.00 | 0.00 | 30 | 1016.0 |
| 20260503130520 | 43 | 0.0 | 1.0 | 0.00 | 0.00 | 0.00 | 61 | 1015.3 | |
| 20260503110519 | 40 | 0.0 | 1.0 | 0.00 | 0.00 | 0.00 | 74 | 1014.3 | |
| 20260503081519 | 47 | 0.0 | 0.0 | 0.00 | 0.00 | 0.00 | 45 | 1016.5 | |
| 20260503080520 | 47 | 0.0 | 0.0 | 0.00 | 0.00 | 0.00 | 44 | 1016.7 | |
| 20260503072539 | 51 | 0.0 | 0.0 | 0.00 | 0.00 | 0.00 | 41 | 1017.6 | |
| 20260503071519 | 52 | 0.0 | 0.0 | 0.00 | 0.00 | 0.00 | 38 | 1018.1 | |
| 20260503070539 | 52 | 0.0 | 1.0 | 0.00 | 0.00 | 0.00 | 35 | 1018.1 | |
| 20260503054519 | 50 | 0.0 | 1.0 | 0.00 | 0.00 | 0.00 | 41 | 1018.0 | |
| 20260503053520 | 49 | 0.0 | 1.0 | 0.00 | 0.00 | 0.00 | 40 | 1017.9 | |
| 20260503052519 | 49 | 0.0 | 0.0 | 0.00 | 0.00 | 0.00 | 40 | 1017.2 | |
| 20260503051519 | 50 | 0.0 | 0.0 | 0.00 | 0.00 | 0.00 | 38 | 1017.2 | |
| 20260503050519 | 51 | 0.0 | 0.0 | 0.00 | 0.00 | 0.00 | 38 | 1017.5 | |
| 20260503045519 | 52 | 0.0 | 0.0 | 0.00 | 0.00 | 0.00 | 38 | 1017.4 | |
| 20260503044519 | 52 | 0.0 | 0.0 | 0.00 | 0.00 | 0.00 | 34 | 1017.3 | |
| 20260503043519 | 53 | 0.0 | 0.0 | 0.00 | 0.00 | 0.00 | 33 | 1017.9 | |
| 20260503042519 | 53 | 0.0 | 1.0 | 0.00 | 0.00 | 0.00 | 32 | 1017.2 | |
| 20260503041519 | 53 | 0.0 | 0.0 | 0.00 | 0.00 | 0.00 | 33 | 1016.8 | |
| 20260503040539 | 53 | 0.0 | 0.0 | 0.00 | 0.00 | 0.00 | 36 | 1017.2 | |
| 20260503035519 | 54 | 0.0 | 0.0 | 0.00 | 0.00 | 0.00 | 37 | 1016.8 | |
| 20260503034519 | 55 | 0.0 | 0.0 | 0.00 | 0.00 | 0.00 | 35 | 1016.7 | |
| 20260503033539 | 55 | 0.0 | 0.0 | 0.00 | 0.00 | 0.00 | 31 | 1016.6 | |
| 20260503032539 | 56 | 0.0 | 0.0 | 0.00 | 0.00 | 0.00 | 32 | 1016.3 | |
| 20260503031539 | 56 | 0.0 | 0.0 | 0.00 | 0.00 | 0.00 | 30 | 1016.1 | |
| 20260503030559 | 57 | 0.0 | 0.0 | 0.00 | 0.00 | 0.00 | 25 | 1015.9 | |
| 20260503025519 | 58 | 0.0 | 0.0 | 0.00 | 0.00 | 0.00 | 24 | 1015.7 | |
| 20260503024519 | 59 | 0.0 | 0.0 | 0.00 | 0.00 | 0.00 | 22 | 1015.6 | |
| 20260503023519 | 61 | 0.0 | 0.0 | 0.00 | 0.00 | 0.00 | 19 | 1015.9 | |
| 20260503022519 | 62 | 0.0 | 0.0 | 0.00 | 0.00 | 0.00 | 16 | 1015.1 | |
| 20260503021539 | 63 | 0.0 | 0.0 | 0.00 | 0.00 | 0.00 | 15 | 1015.3 | |
| 20260503020519 | 65 | 0.0 | 0.0 | 0.00 | 0.00 | 0.00 | 14 | 1015.8 | |
| 20260503015519 | 66 | 0.0 | 1.0 | 0.00 | 0.00 | 0.00 | 12 | 1015.0 | |
| 20260503014519 | 67 | 0.0 | 1.0 | 0.00 | 0.00 | 0.00 | 12 | 1015.0 | |
| 20260503013518 | 67 | 0.0 | 2.0 | 0.00 | 0.00 | 0.00 | 11 | 1015.2 | |
| 20260503012519 | 68 | 135 | 1.0 | 3.0 | 0.00 | 0.00 | 0.00 | 10 | 1014.1 |
| 20260503011519 | 68 | 158 | 1.0 | 3.0 | 0.00 | 0.00 | 0.00 | 11 | 1014.0 |
| 20260503010519 | 68 | 0.0 | 2.0 | 0.00 | 0.00 | 0.00 | 11 | 1014.1 | |
| 20260503005519 | 69 | 0.0 | 2.0 | 0.00 | 0.00 | 0.00 | 11 | 1013.8 | |
| 20260503004518 | 69 | 135 | 1.0 | 2.0 | 0.00 | 0.00 | 0.00 | 10 | 1013.9 |
| 20260503003538 | 69 | 0.0 | 2.0 | 0.00 | 0.00 | 0.00 | 10 | 1013.9 | |
| 20260503002519 | 69 | 0.0 | 1.0 | 0.00 | 0.00 | 0.00 | 11 | 1014.0 | |
| 20260503001518 | 69 | 0.0 | 3.0 | 0.00 | 0.00 | 0.00 | 13 | 1014.1 | |
| 20260503000519 | 69 | 113 | 1.0 | 3.0 | 0.00 | 0.00 | 0.00 | 10 | 1014.2 |
| 20260502235518 | 70 | 158 | 2.0 | 4.0 | 0.00 | 0.00 | 0.00 | 10 | 1014.6 |
| 20260502234519 | 70 | 0.0 | 4.0 | 0.00 | 0.00 | 0.00 | 11 | 1014.6 | |
| 20260502233518 | 70 | 158 | 1.0 | 2.0 | 0.00 | 0.00 | 0.00 | 10 | 1014.6 |
| 20260502232521 | 70 | 0.0 | 2.0 | 0.00 | 0.00 | 0.00 | 11 | 1014.7 | |
| 20260502231538 | 70 | 0.0 | 1.0 | 0.00 | 0.00 | 0.00 | 10 | 1014.7 | |
| 20260502230519 | 70 | 0.0 | 2.0 | 0.00 | 0.00 | 0.00 | 10 | 1014.7 | |
| 20260502225518 | 70 | 135 | 2.0 | 6.0 | 0.00 | 0.00 | 0.00 | 10 | 1014.8 |